Terminal Aerodrome Forecast
Issued by NWS

Home | Current Version | Previous Version | Graphics & Text | Print | Product List | Glossary On
Versions: 1 2 3 4 5 6 7 8 9 10 11 12 13 14 15
000
FTUS43 KUNR 282300
TAFGCC
TAF
KGCC 282320Z 2900/2924 30018G30KT P6SM SCT150
     FM290100 32028G42KT P6SM SCT060 OVC110
     FM290800 31015G25KT P6SM SCT250
     FM291200 30017KT P6SM SKC
     FM292100 32010KT P6SM SKC=

USA.gov is the U.S. government's official web portal to all federal, state and local government web resources and services.